Williams, AZ

11:47 PM MST on February 26, 2017 (GMT -0700)
Grand Canyon National Park

Weather History for KGCN - April, 2014

Change the Weather History Date:

Monday, April 28, 2014

  Actual Average Record
Temperature  
Mean Temperature 45 °F -  
Max Temperature 55 °F 61 °F 79 °F (1992)
Min Temperature 30 °F 25 °F 8 °F (1984)
Degree Days  
Heating Degree Days 20    
Moisture  
Dew Point 16 °F    
Average Humidity 35    
Maximum Humidity 61    
Minimum Humidity 17    
Precipitation  
Precipitation 0.00 in - - ()
Sea Level Pressure  
Sea Level Pressure 29.98 in    
Wind  
Wind Speed 9 mph (WNW)    
Max Wind Speed 16 mph    
Max Gust Speed 25 mph    
Visibility 10 miles    
Events      
Averages and records for this station are not official NWS values.
T = Trace of Precipitation, MM = Missing Value Source: NWS Daily Summary

Daily Weather History Graph

Daily Weather History Graph

Search for Another Location

Airport or City:

Trip Planner

Search our weather history database for the weather conditions in past years. The results will help you decide how hot, cold, wet, or windy it might be!

Date:

Astronomy

Apr. 28, 2014 Rise Set
Actual Time 5:39 AM MST 7:13 PM MST
Civil Twilight 5:12 AM MST 7:40 PM MST
Nautical Twilight 4:39 AM MST 8:13 PM MST
Astronomical Twilight 4:05 AM MST 8:47 PM MST
Moon 5:18 AM MST (4/28) 6:56 PM MST (4/28)
Length of Visible Light 14h 28m
Length of Day
13h 33m
Waning Crescent, 0% of the Moon is Illuminated
Apr 28
Waning Crescent
Apr 28
New
May 6
First Quarter
May 14
Full
May 21
Last Quarter

Hourly Weather History & Observations

Time (MST) Temp. Windchill Dew Point Humidity Pressure Visibility Wind Dir Wind Speed Gust Speed Precip Events Conditions
1:54 AM 35.1 °F 27.9 °F 23.0 °F 61% 29.87 in 10.0 mi WSW 9.2 mph - N/A   Clear
2:54 AM 37.9 °F 32.1 °F 23.0 °F 55% 29.84 in 10.0 mi WSW 8.1 mph - N/A   Clear
3:54 AM 37.0 °F 31.0 °F 23.0 °F 57% 29.85 in 10.0 mi WSW 8.1 mph - N/A   Clear
4:54 AM 37.0 °F 31.6 °F 23.0 °F 57% 29.86 in 10.0 mi WSW 6.9 mph - N/A   Clear
5:54 AM 37.0 °F 31.6 °F 23.0 °F 57% 29.88 in 10.0 mi WSW 6.9 mph - N/A   Clear
6:54 AM 41.0 °F 35.8 °F 23.0 °F 49% 29.91 in 10.0 mi WSW 8.1 mph - N/A   Clear
7:54 AM 46.0 °F 40.6 °F 23.0 °F 40% 29.94 in 10.0 mi NW 11.5 mph - N/A   Clear
8:54 AM 48.9 °F - 21.0 °F 33% 29.94 in 10.0 mi WNW 9.2 mph 19.6 mph N/A   Clear
9:54 AM 50.0 °F - 18.0 °F 28% 29.97 in 10.0 mi WNW 11.5 mph 21.9 mph N/A   Clear
10:54 AM 52.0 °F - 17.1 °F 25% 30.00 in 10.0 mi NNW 8.1 mph 20.7 mph N/A   Clear
11:54 AM 53.1 °F - 16.0 °F 23% 30.02 in 10.0 mi NNW 10.4 mph - N/A   Clear
12:54 PM 54.0 °F - 14.0 °F 21% 30.01 in 10.0 mi NW 11.5 mph 21.9 mph N/A   Clear
2:54 PM 55.9 °F - 12.9 °F 18% 29.95 in 10.0 mi WNW 10.4 mph 20.7 mph N/A   Clear
3:54 PM 55.0 °F - 10.9 °F 17% 29.96 in 10.0 mi WNW 16.1 mph 25.3 mph N/A   Clear
4:54 PM 54.0 °F - 10.9 °F 18% 29.98 in 10.0 mi NW 10.4 mph 23.0 mph N/A   Clear
5:54 PM 52.0 °F - 8.1 °F 17% 30.01 in 10.0 mi WNW 11.5 mph 20.7 mph N/A   Clear
6:54 PM 48.9 °F - 8.1 °F 19% 30.03 in 10.0 mi Variable 5.8 mph - N/A   Clear
7:54 PM 45.0 °F 43.5 °F 9.0 °F 23% 30.04 in 10.0 mi NW 3.5 mph - N/A   Clear
8:54 PM 45.0 °F 40.6 °F 9.0 °F 23% 30.07 in 10.0 mi North 8.1 mph - N/A   Clear
9:54 PM 36.0 °F - 12.9 °F 39% 30.13 in 10.0 mi Calm Calm - N/A   Clear
10:54 PM 37.9 °F 34.4 °F 12.9 °F 36% 30.13 in 10.0 mi NE 4.6 mph - N/A   Clear
11:54 PM 30.9 °F 27.5 °F 15.1 °F 52% 30.17 in 10.0 mi North 3.5 mph - N/A   Clear